SCP
0 0 0 0 0 0 0 0 0 0 0 0 0 0 0 0 0 0 0 0 0 0 0 0 0 0 0 0 0 0 0 0 0 0 0 0 0 0 0 0 0 0 0 0 0 0 0 0 0 0 0 0 0 0
0 0 0 0 0 0 0 0 0 0 0 0 0 0 0 0 0 0 0 0 0 0 0 0 0 0 0 0 0 0 0 0 0 0 0 0 0 0 0 0 0 0 0 0 0 0 0 0 0 0 0 0 0 0
0 0 0 0 0 0 0 0 0 0 0 0 0 0 0 0 0 0 0 0 0 0 0 0 0 0 0 0 0 0 0 0 0 0 0 0 0 0 0 0 0 0 0 0 0 0 0 0 0 0 0 0 0 0
0 0 0 0 0 0 0 0 0 0 0 0 0 0 0 0 0 0 0 0 0 0 0 0 0 0 0 0 0 0 0 0 0 0 0 0 0 0 0 0 0 0 0 0 0 0 0 0 0 0 0 0 0 0
0 0 0 0 0 0 0 0 0 0 0 0 0 0 0 0 0 0 0 0 0 0 0 0 0 0 0 0 0 0 0 0 0 0 0 0 0 0 0 0 0 0 0 0 0 0 0 0 0 0 0 0 0 0
0 0 0 0 0 0 0 0 0 0 0 0 0 0 0 0 0 0 0 0 0 0 0 0 0 0 0 0 0 0 0 0 0 0 0 0 0 0 0 0 0 0 0 0 0 0 0 0 0 0 0 0 0 0
0 0 0 0 0 0 0 0 0 0 0 0 0 0 0 0 0 0 0 0 0 0 0 0 0 0 0 0 0 0 0 0 0 0 0 0 0 0 0 0 0 0 0 0 0 0 0 0 0 0 0 0 0 0
0 0 0 0 0 0 0 0 0 0 0 0 0 0 0 0 0 0 0 0 0 0 0 0 0 0 0 0 0 0 0 0 0 0 0 0 0 0 0 0 0 0 0 0 0 0 0 0 0 0 0 0 0 0
0 0 0 0 0 0 0 0 0 0 0 0 0 0 0 0 0 0 0 0 0 0 0 0 0 0 0 0 0 0 0 0 0 0 0 0 0 0 0 0 0 0 0 0 0 0 0 0 0 0 0 0 0 0
0 0 0 0 0 0 0 0 0 0 0 0 0 0 0 0 0 0 0 0 0 0 0 0 0 0 0 0 0 0 0 0 0 0 0 0 0 0 0 0 0 0 0 0 0 0 0 0 0 0 0 0 0 0
0 0 0 0 0 0 0 0 0 0 0 0 0 0 0 0 0 0 0 0 0 0 0 0 0 0 0 0 0 0 0 0 0 0 0 0 0 0 0 0 0 0 0 0 0 0 0 0 0 0 0 0 0 0
-0 0 0 0 0 0 0 0 0 0 0 0 0 0 0 0 0 0 0 0 0 0 0 0 0 0 0 0 0 0 0 0 0 0 0 0 0 0 0 0 0 0 0 0 0 0 0 0 0 0 0 0 0 0
0 0 0 0 0 0 0 0 -0 0 0 0 0 0 0 0 0 0 0 0 0 0 0 0 0 0 0 0 0 0 0 0 0 0 0 0 0 0 0 0 0 0 0 0 0 0 0 0 0 0 0 0 0 0
-0 0 0 0 0 0 0 0 -0 0 0 0 0 0 0 0 0 0 0 0 0 0 0 0 0 0 0 0 0 0 0 0 0 0 0 0 0 0 0 0 0 0 0 0 0 0 0 0 0 0 0 0 0 0
0 0 0 0 0 0 0 0 0 0 0 0 0 0 0 0 0 0 0 0 0 0 0 0 0 0 0 0 0 0 0 0 0 0 0 0 0 0 0 0 0 0 0 0 0 0 0 0 0 0 0 0 -0 0
0 0 0 0 0 0 -0 0 0 0 0 0 0 0 0 0 0 0 0 0 -0 0 0 0 0 0 0 0 0 0 0 0 0 0 0 0 0 0 0 0 0 0 0 0 0 0 0 0 0 0 0 -0 0 0
0 0 0 0 0 0 -0 0 0 0 0 0 0 0 0 0 0 0 0 0 0 0 0 0 0 0 0 0 0 0 0 0 0 0 0 0 0 0 0 0 0 0 0 0 0 0 0 -0 -0 0 -0 -0 0 -0
0 0 -0 -0 -0 0 0 0 0 0 0 -0 0 0 -0 0 0 0 0 0 0 0 0 0 0 0 0 0 0 0 0 0 0 0 0 0 0 0 0 0 0 0 0 0 0 0 -0 -0 -0 0 0 0 0 0
0 -0 -0 -0 0 0 -0 -0 -0 -0 -0 -0 -0 0 0 0 0 0 0 0 0 0 0 0 0 0 0 0 0 0 0 0 0 0 0 0 0 0 0 0 0 0 0 0 0 0 0 0 0 0 0 0 0 0
0 -0 0 -0 0 0 -0 -0 -0 -0 -0 -0 -0 -0 0 0 0 0 0 0 0 0 0 0 0 0 0 0 0 0 0 0 0 0 0 0 0 0 0 0 0 0 0 -0 -0 0 0 0 0 0 0 0 -0 0
0 0 0 0 -0 -0 -0 -0 -0 -0 -0 0 -0 0 0 0 0 0 0 0 0 0 0 0 0 0 0 0 0 -0 -0 0 0 0 0 0 0 0 0 0 0 0 -0 -0 -0 0 0 0 0 0 0 0 0 0
0 0 0 0 0 -0 -0 -0 -0 -0 0 0 -0 -0 0 0 0 0 0 0 0 0 0 0 0 0 0 0 0 0 0 -0 0 0 0 0 0 0 0 0 0 0 0 0 0 0 0 0 0 -0 0 0 0 0
0 0 0 0 0 0 0 0 0 0 0 0 0 0 0 -0 -0 -0 0 -0 -0 0 0 0 0 0 0 0 0 0 0 0 0 0 0 0 0 0 0 0 0 0 0 0 0 0 0 0 0 0 0 0 0 0
0 0 0 0 0 0 0 0 0 0 0 0 0 0 0 0 -0 -0 -0 -0 0 0 0 0 0 0 0 0 0 0 0 0 0 0 0 0 0 0 0 0 0 0 0 0 0 0 0 0 0 0 0 0 0 0
0 0 0 0 0 0 0 0 0 0 0 0 0 0 0 0 0 0 -0 -0 -0 0 0 0 0 0 0 0 0 0 0 0 0 0 0 0 0 0 -0 0 0 0 0 0 0 0 0 0 0 0 0 0 0 0
0 0 0 0 0 0 0 0 0 0 0 0 0 0 0 0 0 0 0 0 0 0 0 0 0 0 0 0 0 0 0 0 0 0 0 0 0 0 0 -0 0 0 0 0 0 -0 0 0 0 0 0 -0 -0 0
0 0 0 0 0 0 0 0 0 0 0 0 0 0 0 0 0 0 0 0 0 0 0 0 0 0 0 0 0 0 0 0 0 0 0 0 0 0 0 0 0 0 0 0 0 0 0 0 0 0 -0 -0 -0 -0
0 0 0 0 0 0 0 0 0 0 0 0 0 0 0 0 0 0 0 0 0 0 0 0 0 0 0 0 0 0 0 0 0 0 0 0 -0 0 0 0 0 -0 0 0 0 0 0 0 -0 0 0 -0 0 0
0 0 0 0 0 0 0 0 0 0 0 0 0 -0 0 0 0 0 0 -0 -0 0 0 0 0 0 0 0 0 0 -0 0 0 0 0 -0 -0 0 0 -0 -0 0 0 -0 -0 -0 -0 0 0 0 0 0 0 0
0 0 0 0 0 0 0 0 0 0 0 0 0 0 0 -0 0 0 0 0 0 0 0 0 0 0 0 0 0 0 -0 0 0 0 0 0 0 0 -0 -0 -0 -0 -0 -0 -0 -0 0 0 0 0 0 0 0 0
0 0 0 0 0 0 0 0 0 0 0 0 0 0 0 0 0 0 0 0 0 0 0 0 0 0 0 0 0 0 0 0 0 -0 -0 0 -0 -0 0 0 0 -0 -0 0 0 -0 -0 -0 0 0 0 0 0 0
0 0 0 0 0 0 0 0 0 0 0 0 0 0 0 0 0 0 0 0 0 0 0 0 0 0 0 0 0 0 0 0 0 0 0 0 0 -0 -0 0 -0 -0 -0 -0 -0 -0 0 -0 0 0 0 0 0 0
0 0 0 0 0 0 0 0 0 0 0 0 0 0 0 0 0 0 0 0 0 0 0 0 0 0 0 0 0 0 0 0 0 0 0 0 0 0 0 0 -0 -0 0 0 0 -0 0 -0 -0 0 0 0 0 0
Wind_Speed_500mb
27 27 28 28 30 30 28 29 32 33 31 30 32 36 31 30 25 19 8 21 20 30 41 20 18 20 15 18 17 16 9 20 19 21 22 20 19 16 16 25 19 18 17 21 26 34 24 10 8 14 14 13 21 28
25 27 28 28 27 28 30 32 31 28 28 27 29 32 27 27 24 19 14 18 19 27 34 22 26 28 27 20 20 8 11 8 13 13 18 13 10 9 12 21 25 16 18 13 9 5 1 7 7 11 15 25 27 27
26 24 24 26 28 28 27 28 29 28 30 30 28 28 24 25 25 23 18 17 18 30 43 46 38 30 33 28 20 15 20 5 5 11 22 8 12 10 15 18 24 21 11 14 20 17 14 8 8 19 16 18 22 27
25 23 19 20 24 26 29 30 29 26 22 23 25 27 23 22 23 22 18 14 19 19 15 13 16 17 13 24 34 33 12 7 11 14 21 13 14 6 17 19 19 11 6 10 22 24 28 37 19 16 10 19 32 36
29 25 24 24 25 26 23 28 29 29 27 21 22 20 20 17 17 17 22 23 24 19 14 17 10 20 16 20 19 27 36 21 23 22 13 17 28 21 20 18 21 26 24 20 20 25 13 21 15 16 23 27 32 31
29 28 25 27 27 31 30 26 26 29 28 25 22 23 21 20 19 10 17 22 23 20 15 9 11 16 19 23 22 18 27 26 26 22 20 26 18 8 10 19 32 33 20 26 25 28 20 16 24 27 29 23 25 27
34 31 29 27 30 26 24 27 25 24 25 26 22 24 25 27 22 22 4 2 27 18 12 12 13 24 23 20 22 24 27 27 27 32 28 28 23 22 17 23 35 18 21 25 26 21 21 27 29 19 9 19 23 27
30 31 31 28 25 25 25 22 24 24 22 24 28 28 31 27 30 32 26 15 12 13 10 8 9 14 28 24 24 23 23 25 23 24 21 23 29 34 20 30 34 32 36 34 35 29 27 28 22 22 20 22 24 24
33 31 31 29 27 27 27 23 22 21 21 22 21 30 30 31 26 32 33 29 28 12 9 11 15 11 27 27 16 20 23 12 19 16 28 17 18 17 19 36 27 23 22 19 21 19 15 17 12 13 15 18 20 21
33 34 28 27 26 27 23 15 16 23 23 20 29 13 10 11 24 19 10 18 20 10 12 14 25 8 18 25 22 19 14 10 8 13 20 22 25 41 41 37 34 28 23 17 18 14 11 19 4 7 9 11 15 20
34 33 22 19 16 12 5 11 12 11 18 20 13 11 13 22 20 13 13 15 15 11 18 29 29 15 12 13 10 16 6 5 6 10 11 10 19 24 25 25 22 25 31 18 9 6 6 4 2 6 10 14 16 20
39 38 26 20 16 14 10 11 13 11 12 16 11 11 9 11 10 7 9 12 12 11 20 29 33 32 10 5 6 8 6 6 9 17 6 9 17 18 12 9 9 11 12 16 16 15 12 6 3 7 12 15 17 20
37 38 30 23 18 14 13 11 14 19 11 11 8 8 9 11 11 12 16 10 11 14 17 22 14 26 9 13 11 7 10 11 7 9 13 13 23 19 20 21 22 26 31 29 23 16 9 5 7 10 11 14 17 18
23 22 27 25 22 19 12 16 21 28 14 8 8 9 8 8 11 6 9 9 4 13 25 31 31 15 12 15 7 10 12 5 9 16 24 14 29 26 28 28 31 28 25 21 15 9 3 5 10 11 12 14 17 19
27 30 30 25 19 18 17 13 31 26 8 5 7 8 15 13 15 11 3 8 8 4 28 28 15 15 10 8 7 4 7 11 12 22 7 19 25 29 28 31 28 24 19 15 8 3 3 8 11 14 14 12 14 19
16 33 30 24 20 21 20 17 30 19 7 5 11 14 14 11 12 11 10 9 4 12 16 4 5 6 7 7 9 11 7 11 2 10 17 19 24 26 28 27 22 19 16 9 4 6 9 12 16 17 12 14 18 22
17 10 17 19 14 22 33 25 18 10 9 8 14 21 20 18 14 12 10 11 6 8 5 8 8 9 10 8 10 12 9 6 14 22 23 17 25 28 26 26 21 15 9 5 7 10 13 16 17 15 19 17 19 21
7 12 18 25 22 26 30 23 6 10 11 22 20 22 17 23 24 11 11 12 10 12 12 4 6 8 7 8 14 10 4 13 13 20 19 16 20 22 20 19 13 8 5 5 8 11 14 16 17 18 19 17 20 22
14 7 16 20 23 26 8 11 9 9 21 23 23 30 29 22 26 14 10 14 17 6 8 6 7 9 10 6 6 4 9 19 16 15 15 13 14 14 12 8 5 7 8 9 12 16 18 20 22 22 20 18 20 22
10 10 17 17 16 3 6 6 8 11 13 15 21 26 29 30 31 31 31 27 18 20 11 8 12 19 8 3 4 15 7 12 12 7 8 5 6 6 7 7 10 9 15 18 22 23 17 19 20 17 15 16 21 15
12 12 11 15 8 8 6 6 11 14 14 15 18 18 22 23 30 34 37 37 37 35 27 31 30 29 17 7 4 4 19 7 3 2 7 10 10 9 12 16 19 21 21 21 23 19 11 15 20 14 13 14 13 17
11 6 6 9 4 4 8 12 10 11 10 18 23 19 20 24 26 32 31 39 46 46 46 47 44 34 35 34 30 24 19 17 17 18 18 20 20 20 23 23 21 24 25 25 27 27 14 15 17 18 15 15 16 19
8 7 4 7 6 8 9 11 9 9 7 6 6 6 8 8 9 10 12 32 46 45 42 40 36 34 36 37 32 32 29 27 28 29 27 26 26 25 25 26 24 27 28 27 24 17 15 16 19 11 11 11 20 19
2 3 5 7 12 8 7 11 11 9 10 8 7 6 6 10 6 7 7 10 15 28 39 36 35 32 33 32 37 35 33 32 33 31 31 30 30 29 27 28 29 26 26 25 19 13 14 15 14 9 8 15 17 14
5 4 7 10 9 8 7 6 10 9 8 8 8 5 6 11 6 7 3 14 20 12 6 11 22 30 31 29 29 32 31 32 33 32 30 29 29 29 30 29 27 27 26 26 19 15 12 11 11 10 13 17 11 12
7 9 7 5 5 7 6 7 6 5 7 5 5 5 12 5 5 7 8 31 19 13 13 14 19 20 23 22 16 17 10 14 23 29 28 27 25 24 25 29 27 18 11 9 9 14 14 14 13 12 13 16 13 14
6 3 7 8 10 14 11 11 8 6 5 3 5 12 6 9 10 10 30 35 28 26 6 8 24 19 14 16 18 22 22 20 21 21 16 19 23 24 12 6 10 8 12 17 17 19 17 17 18 13 12 13 14 16
6 7 9 13 7 8 6 7 6 8 8 10 9 11 7 11 6 19 29 35 29 28 11 10 13 15 18 22 18 20 18 17 19 18 18 17 16 7 10 11 21 20 19 15 13 18 12 5 8 12 13 16 17 16
6 11 11 7 2 5 11 13 14 17 24 25 13 7 5 9 26 27 27 25 26 32 37 26 13 10 15 13 17 15 17 19 17 17 15 11 7 15 10 6 6 4 4 4 10 15 17 13 9 10 16 17 17 17
9 11 6 12 9 12 18 16 21 19 19 21 21 17 15 19 30 34 30 29 35 39 38 40 33 19 11 11 9 10 12 14 17 17 15 12 5 9 7 6 4 2 3 4 3 6 12 8 14 14 19 21 22 29
1 5 8 9 6 6 13 9 11 13 13 14 13 13 8 6 13 39 41 33 29 33 38 39 44 39 23 21 16 14 15 16 15 15 19 23 15 11 7 4 3 2 2 4 5 4 6 10 13 18 23 25 27 34
4 3 5 6 5 5 4 5 11 24 28 27 23 20 21 21 15 23 45 43 43 41 40 42 42 42 36 27 21 18 22 23 26 23 22 18 12 10 9 7 6 5 3 3 5 7 8 11 15 21 26 28 28 34
8 6 5 11 10 8 9 6 5 6 13 26 27 23 19 14 15 27 33 38 38 38 37 34 35 34 32 24 24 22 27 27 24 24 21 11 9 9 11 11 9 6 1 2 4 7 9 17 21 23 28 31 30 36
Wind_Direction_500mb
291 292 290 281 275 273 273 273 270 269 269 267 265 271 273 269 265 243 273 244 232 266 270 274 266 262 253 247 252 105 173 218 211 232 255 246 246 254 214 264 278 213 202 226 232 248 253 69 212 259 28 327 328 331
297 296 292 288 284 281 277 272 272 269 267 259 262 266 262 259 255 237 250 259 241 250 261 286 261 247 249 272 298 213 283 312 225 226 229 259 220 233 243 258 201 249 277 302 166 333 52 64 31 350 335 324 329 327
287 289 303 293 284 281 280 277 275 276 272 266 257 260 256 253 249 226 235 254 274 267 279 254 251 258 246 235 224 264 225 336 254 318 316 254 259 273 248 230 252 203 252 270 292 276 269 291 299 266 273 304 314 313
280 282 288 308 306 292 281 277 272 267 271 276 266 266 255 251 250 242 237 259 247 275 281 233 202 243 241 213 226 232 261 296 283 279 268 271 266 269 272 304 297 293 8 260 263 264 278 269 297 330 327 298 310 308
279 282 276 292 290 286 286 286 278 264 254 261 256 258 259 240 254 259 249 244 242 247 314 311 292 233 216 215 230 224 221 243 245 232 234 245 256 275 263 271 270 252 240 254 269 315 328 306 327 319 305 309 311 317
271 269 272 286 295 279 276 273 281 270 257 249 253 239 242 235 241 268 259 229 237 239 272 265 233 219 211 205 203 193 208 215 239 247 249 249 241 251 263 256 255 241 256 265 264 268 285 288 284 294 287 287 313 319
264 268 273 281 286 285 287 272 274 266 262 259 240 232 234 232 221 209 299 256 183 191 246 256 232 195 200 193 198 206 211 221 229 230 241 253 248 201 253 262 273 263 235 258 247 251 269 278 284 294 291 308 304 302
263 261 264 272 280 282 285 281 265 259 250 252 256 230 227 232 238 237 246 266 197 209 246 264 246 176 190 198 193 202 201 208 215 237 237 233 242 233 250 257 266 270 266 255 244 254 254 269 274 263 282 289 306 292
256 257 257 268 276 284 286 272 265 245 247 253 247 233 235 222 221 237 238 263 199 242 278 240 246 195 171 209 159 178 199 197 221 213 231 234 227 228 231 239 251 250 254 260 251 246 249 252 294 295 316 309 304 308
251 251 247 264 272 282 278 263 270 237 252 233 225 209 206 204 188 185 215 193 200 233 240 251 243 241 197 187 190 159 206 232 209 229 238 230 242 251 247 248 252 259 266 258 258 263 260 297 304 307 318 313 309 307
243 230 237 258 262 251 259 245 243 232 212 182 182 192 145 154 182 190 190 190 183 216 220 228 236 229 211 215 204 193 218 180 220 200 214 227 236 233 224 228 247 255 240 227 219 176 151 106 26 316 319 317 312 308
232 223 218 236 240 236 252 244 251 236 203 182 166 156 175 193 214 230 190 184 213 228 190 203 201 213 154 216 238 165 246 213 252 129 231 248 239 156 160 171 175 181 156 126 133 133 134 129 27 340 329 320 315 308
228 214 214 221 227 233 237 257 237 211 218 188 188 167 190 201 228 230 191 192 193 196 162 155 159 181 146 209 231 172 222 237 252 216 223 247 118 132 149 147 133 137 130 133 136 137 125 68 11 352 336 324 321 316
210 205 207 212 227 234 246 225 250 208 204 198 180 201 237 200 228 281 339 353 325 165 166 166 167 168 184 168 195 204 220 233 224 231 223 149 146 152 153 157 150 146 143 142 138 126 85 3 348 343 332 327 329 324
197 205 208 215 229 234 234 256 185 186 191 237 251 225 222 234 248 277 334 281 14 267 164 171 185 179 148 171 201 243 221 229 216 232 82 121 144 159 169 163 153 148 155 157 165 190 306 327 325 325 316 314 321 325
219 206 204 227 236 221 212 205 181 176 198 224 241 255 250 253 267 250 300 298 243 268 177 228 174 142 186 155 176 208 260 228 168 89 116 132 147 153 150 152 151 161 167 173 216 278 301 306 318 319 298 306 314 318
180 208 221 209 215 197 204 203 175 179 208 232 243 238 250 254 266 257 236 230 230 223 225 201 181 172 134 192 206 194 235 51 101 111 100 115 141 142 139 144 154 162 181 227 276 287 294 303 308 307 285 285 303 313
179 230 211 192 186 182 174 189 171 199 237 237 250 253 251 259 260 264 257 213 206 214 184 242 304 223 205 219 208 200 144 125 130 98 88 111 128 139 144 140 154 174 214 261 292 296 285 279 291 296 290 288 307 310
145 147 168 185 204 178 165 183 192 234 236 262 258 266 271 271 262 238 220 222 222 250 286 212 241 233 236 311 351 320 171 152 144 118 115 123 126 134 147 164 211 238 248 272 288 297 300 296 296 293 289 298 308 308
136 116 160 159 140 146 170 188 211 254 266 270 263 260 253 254 249 239 227 214 207 222 236 230 243 255 302 253 30 115 262 146 127 131 140 131 182 204 223 266 275 292 278 274 275 259 288 295 275 294 279 296 307 302
124 140 148 169 210 237 257 209 231 244 276 276 282 261 243 237 227 232 234 227 224 221 225 233 251 253 253 243 341 127 175 191 190 129 129 216 261 259 256 266 269 275 276 280 284 289 267 296 299 296 294 303 313 286
189 184 164 174 240 265 267 240 262 307 268 267 288 264 258 256 245 240 230 226 226 230 235 239 243 243 246 249 250 243 241 228 249 266 265 257 260 259 257 261 276 284 288 289 291 291 289 298 304 295 295 303 295 280
130 155 196 201 241 231 259 208 230 223 251 251 229 225 223 221 241 229 226 231 233 234 240 238 237 239 248 250 245 246 241 242 253 251 253 258 258 262 267 270 271 277 280 283 285 282 285 285 297 294 287 298 291 306
161 221 235 228 220 254 232 215 212 233 225 218 224 235 210 176 182 235 268 303 253 230 223 226 224 223 225 231 240 237 233 236 244 248 247 252 258 262 267 268 269 272 274 276 274 259 259 289 272 275 250 292 300 286
253 238 230 248 250 245 248 233 203 211 251 218 209 181 141 155 197 198 352 345 311 288 279 230 217 223 229 229 225 227 232 238 243 246 244 242 251 261 264 268 274 279 275 266 243 234 260 254 244 225 242 287 254 253
247 202 209 281 250 243 291 293 318 312 311 348 347 147 178 200 92 39 350 339 349 349 239 222 213 227 238 247 264 243 243 236 240 239 241 245 261 277 281 268 265 274 257 260 280 248 244 234 272 209 228 275 230 226
263 224 230 267 284 297 279 281 289 272 288 357 9 5 42 51 51 348 341 15 10 34 51 231 222 224 228 233 237 237 247 247 233 249 262 255 250 269 288 257 265 249 260 256 271 269 243 260 229 207 214 230 213 211
306 304 300 322 279 258 280 305 1 24 358 19 56 25 46 17 346 329 347 9 14 25 45 121 150 202 223 228 232 232 225 225 234 249 259 259 242 234 267 261 285 291 276 281 242 228 236 194 195 204 206 204 199 198
276 305 301 290 250 283 23 38 33 33 35 55 67 63 52 16 19 16 16 12 14 33 38 38 42 206 212 190 206 231 238 232 230 243 242 224 252 287 252 246 239 204 177 198 182 172 195 187 200 192 193 188 187 183
13 354 22 27 10 38 42 73 83 80 72 74 95 110 100 68 41 31 30 22 22 27 30 32 43 68 96 176 186 223 237 227 215 210 225 213 182 145 125 120 121 157 173 191 214 229 224 217 222 211 176 174 172 166
7 68 74 54 53 56 59 45 39 68 71 81 107 104 136 144 51 32 28 26 21 16 19 21 27 38 62 71 84 114 134 142 138 123 136 126 101 95 87 50 3 311 233 235 213 185 172 167 173 177 176 173 170 167
138 6 127 118 131 181 228 324 65 68 63 56 54 66 62 54 62 24 17 16 19 20 17 15 15 25 40 49 62 85 112 114 125 127 140 111 95 64 28 6 345 316 324 253 188 161 168 186 189 182 177 170 169 170
92 85 116 143 142 189 215 248 116 86 67 69 57 43 47 46 52 22 14 17 19 16 17 14 1 29 41 46 61 86 120 122 121 121 132 125 101 98 39 351 336 340 30 153 181 174 174 182 177 178 175 170 168 167
Wind_Speed_850mb
27 27 28 28 30 30 28 29 32 33 31 30 32 36 31 30 25 19 8 21 20 30 41 20 18 20 15 18 17 16 9 20 19 21 22 20 19 16 16 25 19 18 17 21 26 34 24 10 8 14 14 13 21 28
25 27 28 28 27 28 30 32 31 28 28 27 29 32 27 27 24 19 14 18 19 27 34 22 26 28 27 20 20 8 11 8 13 13 18 13 10 9 12 21 25 16 18 13 9 5 1 7 7 11 15 25 27 27
26 24 24 26 28 28 27 28 29 28 30 30 28 28 24 25 25 23 18 17 18 30 43 46 38 30 33 28 20 15 20 5 5 11 22 8 12 10 15 18 24 21 11 14 20 17 14 8 8 19 16 18 22 27
25 23 19 20 24 26 29 30 29 26 22 23 25 27 23 22 23 22 18 14 19 19 15 13 16 17 13 24 34 33 12 7 11 14 21 13 14 6 17 19 19 11 6 10 22 24 28 37 19 16 10 19 32 36
29 25 24 24 25 26 23 28 29 29 27 21 22 20 20 17 17 17 22 23 24 19 14 17 10 20 16 20 19 27 36 21 23 22 13 17 28 21 20 18 21 26 24 20 20 25 13 21 15 16 23 27 32 31
29 28 25 27 27 31 30 26 26 29 28 25 22 23 21 20 19 10 17 22 23 20 15 9 11 16 19 23 22 18 27 26 26 22 20 26 18 8 10 19 32 33 20 26 25 28 20 16 24 27 29 23 25 27
34 31 29 27 30 26 24 27 25 24 25 26 22 24 25 27 22 22 4 2 27 18 12 12 13 24 23 20 22 24 27 27 27 32 28 28 23 22 17 23 35 18 21 25 26 21 21 27 29 19 9 19 23 27
30 31 31 28 25 25 25 22 24 24 22 24 28 28 31 27 30 32 26 15 12 13 10 8 9 14 28 24 24 23 23 25 23 24 21 23 29 34 20 30 34 32 36 34 35 29 27 28 22 22 20 22 24 24
33 31 31 29 27 27 27 23 22 21 21 22 21 30 30 31 26 32 33 29 28 12 9 11 15 11 27 27 16 20 23 12 19 16 28 17 18 17 19 36 27 23 22 19 21 19 15 17 12 13 15 18 20 21
33 34 28 27 26 27 23 15 16 23 23 20 29 13 10 11 24 19 10 18 20 10 12 14 25 8 18 25 22 19 14 10 8 13 20 22 25 41 41 37 34 28 23 17 18 14 11 19 4 7 9 11 15 20
34 33 22 19 16 12 5 11 12 11 18 20 13 11 13 22 20 13 13 15 15 11 18 29 29 15 12 13 10 16 6 5 6 10 11 10 19 24 25 25 22 25 31 18 9 6 6 4 2 6 10 14 16 20
39 38 26 20 16 14 10 11 13 11 12 16 11 11 9 11 10 7 9 12 12 11 20 29 33 32 10 5 6 8 6 6 9 17 6 9 17 18 12 9 9 11 12 16 16 15 12 6 3 7 12 15 17 20
37 38 30 23 18 14 13 11 14 19 11 11 8 8 9 11 11 12 16 10 11 14 17 22 14 26 9 13 11 7 10 11 7 9 13 13 23 19 20 21 22 26 31 29 23 16 9 5 7 10 11 14 17 18
23 22 27 25 22 19 12 16 21 28 14 8 8 9 8 8 11 6 9 9 4 13 25 31 31 15 12 15 7 10 12 5 9 16 24 14 29 26 28 28 31 28 25 21 15 9 3 5 10 11 12 14 17 19
27 30 30 25 19 18 17 13 31 26 8 5 7 8 15 13 15 11 3 8 8 4 28 28 15 15 10 8 7 4 7 11 12 22 7 19 25 29 28 31 28 24 19 15 8 3 3 8 11 14 14 12 14 19
16 33 30 24 20 21 20 17 30 19 7 5 11 14 14 11 12 11 10 9 4 12 16 4 5 6 7 7 9 11 7 11 2 10 17 19 24 26 28 27 22 19 16 9 4 6 9 12 16 17 12 14 18 22
17 10 17 19 14 22 33 25 18 10 9 8 14 21 20 18 14 12 10 11 6 8 5 8 8 9 10 8 10 12 9 6 14 22 23 17 25 28 26 26 21 15 9 5 7 10 13 16 17 15 19 17 19 21
7 12 18 25 22 26 30 23 6 10 11 22 20 22 17 23 24 11 11 12 10 12 12 4 6 8 7 8 14 10 4 13 13 20 19 16 20 22 20 19 13 8 5 5 8 11 14 16 17 18 19 17 20 22
14 7 16 20 23 26 8 11 9 9 21 23 23 30 29 22 26 14 10 14 17 6 8 6 7 9 10 6 6 4 9 19 16 15 15 13 14 14 12 8 5 7 8 9 12 16 18 20 22 22 20 18 20 22
10 10 17 17 16 3 6 6 8 11 13 15 21 26 29 30 31 31 31 27 18 20 11 8 12 19 8 3 4 15 7 12 12 7 8 5 6 6 7 7 10 9 15 18 22 23 17 19 20 17 15 16 21 15
12 12 11 15 8 8 6 6 11 14 14 15 18 18 22 23 30 34 37 37 37 35 27 31 30 29 17 7 4 4 19 7 3 2 7 10 10 9 12 16 19 21 21 21 23 19 11 15 20 14 13 14 13 17
11 6 6 9 4 4 8 12 10 11 10 18 23 19 20 24 26 32 31 39 46 46 46 47 44 34 35 34 30 24 19 17 17 18 18 20 20 20 23 23 21 24 25 25 27 27 14 15 17 18 15 15 16 19
8 7 4 7 6 8 9 11 9 9 7 6 6 6 8 8 9 10 12 32 46 45 42 40 36 34 36 37 32 32 29 27 28 29 27 26 26 25 25 26 24 27 28 27 24 17 15 16 19 11 11 11 20 19
2 3 5 7 12 8 7 11 11 9 10 8 7 6 6 10 6 7 7 10 15 28 39 36 35 32 33 32 37 35 33 32 33 31 31 30 30 29 27 28 29 26 26 25 19 13 14 15 14 9 8 15 17 14
5 4 7 10 9 8 7 6 10 9 8 8 8 5 6 11 6 7 3 14 20 12 6 11 22 30 31 29 29 32 31 32 33 32 30 29 29 29 30 29 27 27 26 26 19 15 12 11 11 10 13 17 11 12
7 9 7 5 5 7 6 7 6 5 7 5 5 5 12 5 5 7 8 31 19 13 13 14 19 20 23 22 16 17 10 14 23 29 28 27 25 24 25 29 27 18 11 9 9 14 14 14 13 12 13 16 13 14
6 3 7 8 10 14 11 11 8 6 5 3 5 12 6 9 10 10 30 35 28 26 6 8 24 19 14 16 18 22 22 20 21 21 16 19 23 24 12 6 10 8 12 17 17 19 17 17 18 13 12 13 14 16
6 7 9 13 7 8 6 7 6 8 8 10 9 11 7 11 6 19 29 35 29 28 11 10 13 15 18 22 18 20 18 17 19 18 18 17 16 7 10 11 21 20 19 15 13 18 12 5 8 12 13 16 17 16
6 11 11 7 2 5 11 13 14 17 24 25 13 7 5 9 26 27 27 25 26 32 37 26 13 10 15 13 17 15 17 19 17 17 15 11 7 15 10 6 6 4 4 4 10 15 17 13 9 10 16 17 17 17
9 11 6 12 9 12 18 16 21 19 19 21 21 17 15 19 30 34 30 29 35 39 38 40 33 19 11 11 9 10 12 14 17 17 15 12 5 9 7 6 4 2 3 4 3 6 12 8 14 14 19 21 22 29
1 5 8 9 6 6 13 9 11 13 13 14 13 13 8 6 13 39 41 33 29 33 38 39 44 39 23 21 16 14 15 16 15 15 19 23 15 11 7 4 3 2 2 4 5 4 6 10 13 18 23 25 27 34
4 3 5 6 5 5 4 5 11 24 28 27 23 20 21 21 15 23 45 43 43 41 40 42 42 42 36 27 21 18 22 23 26 23 22 18 12 10 9 7 6 5 3 3 5 7 8 11 15 21 26 28 28 34
8 6 5 11 10 8 9 6 5 6 13 26 27 23 19 14 15 27 33 38 38 38 37 34 35 34 32 24 24 22 27 27 24 24 21 11 9 9 11 11 9 6 1 2 4 7 9 17 21 23 28 31 30 36
Wind_Direction_850mb
291 292 290 281 275 273 273 273 270 269 269 267 265 271 273 269 265 243 273 244 232 266 270 274 266 262 253 247 252 105 173 218 211 232 255 246 246 254 214 264 278 213 202 226 232 248 253 69 212 259 28 327 328 331
297 296 292 288 284 281 277 272 272 269 267 259 262 266 262 259 255 237 250 259 241 250 261 286 261 247 249 272 298 213 283 312 225 226 229 259 220 233 243 258 201 249 277 302 166 333 52 64 31 350 335 324 329 327
287 289 303 293 284 281 280 277 275 276 272 266 257 260 256 253 249 226 235 254 274 267 279 254 251 258 246 235 224 264 225 336 254 318 316 254 259 273 248 230 252 203 252 270 292 276 269 291 299 266 273 304 314 313
280 282 288 308 306 292 281 277 272 267 271 276 266 266 255 251 250 242 237 259 247 275 281 233 202 243 241 213 226 232 261 296 283 279 268 271 266 269 272 304 297 293 8 260 263 264 278 269 297 330 327 298 310 308
279 282 276 292 290 286 286 286 278 264 254 261 256 258 259 240 254 259 249 244 242 247 314 311 292 233 216 215 230 224 221 243 245 232 234 245 256 275 263 271 270 252 240 254 269 315 328 306 327 319 305 309 311 317
271 269 272 286 295 279 276 273 281 270 257 249 253 239 242 235 241 268 259 229 237 239 272 265 233 219 211 205 203 193 208 215 239 247 249 249 241 251 263 256 255 241 256 265 264 268 285 288 284 294 287 287 313 319
264 268 273 281 286 285 287 272 274 266 262 259 240 232 234 232 221 209 299 256 183 191 246 256 232 195 200 193 198 206 211 221 229 230 241 253 248 201 253 262 273 263 235 258 247 251 269 278 284 294 291 308 304 302
263 261 264 272 280 282 285 281 265 259 250 252 256 230 227 232 238 237 246 266 197 209 246 264 246 176 190 198 193 202 201 208 215 237 237 233 242 233 250 257 266 270 266 255 244 254 254 269 274 263 282 289 306 292
256 257 257 268 276 284 286 272 265 245 247 253 247 233 235 222 221 237 238 263 199 242 278 240 246 195 171 209 159 178 199 197 221 213 231 234 227 228 231 239 251 250 254 260 251 246 249 252 294 295 316 309 304 308
251 251 247 264 272 282 278 263 270 237 252 233 225 209 206 204 188 185 215 193 200 233 240 251 243 241 197 187 190 159 206 232 209 229 238 230 242 251 247 248 252 259 266 258 258 263 260 297 304 307 318 313 309 307
243 230 237 258 262 251 259 245 243 232 212 182 182 192 145 154 182 190 190 190 183 216 220 228 236 229 211 215 204 193 218 180 220 200 214 227 236 233 224 228 247 255 240 227 219 176 151 106 26 316 319 317 312 308
232 223 218 236 240 236 252 244 251 236 203 182 166 156 175 193 214 230 190 184 213 228 190 203 201 213 154 216 238 165 246 213 252 129 231 248 239 156 160 171 175 181 156 126 133 133 134 129 27 340 329 320 315 308
228 214 214 221 227 233 237 257 237 211 218 188 188 167 190 201 228 230 191 192 193 196 162 155 159 181 146 209 231 172 222 237 252 216 223 247 118 132 149 147 133 137 130 133 136 137 125 68 11 352 336 324 321 316
210 205 207 212 227 234 246 225 250 208 204 198 180 201 237 200 228 281 339 353 325 165 166 166 167 168 184 168 195 204 220 233 224 231 223 149 146 152 153 157 150 146 143 142 138 126 85 3 348 343 332 327 329 324
197 205 208 215 229 234 234 256 185 186 191 237 251 225 222 234 248 277 334 281 14 267 164 171 185 179 148 171 201 243 221 229 216 232 82 121 144 159 169 163 153 148 155 157 165 190 306 327 325 325 316 314 321 325
219 206 204 227 236 221 212 205 181 176 198 224 241 255 250 253 267 250 300 298 243 268 177 228 174 142 186 155 176 208 260 228 168 89 116 132 147 153 150 152 151 161 167 173 216 278 301 306 318 319 298 306 314 318
180 208 221 209 215 197 204 203 175 179 208 232 243 238 250 254 266 257 236 230 230 223 225 201 181 172 134 192 206 194 235 51 101 111 100 115 141 142 139 144 154 162 181 227 276 287 294 303 308 307 285 285 303 313
179 230 211 192 186 182 174 189 171 199 237 237 250 253 251 259 260 264 257 213 206 214 184 242 304 223 205 219 208 200 144 125 130 98 88 111 128 139 144 140 154 174 214 261 292 296 285 279 291 296 290 288 307 310
145 147 168 185 204 178 165 183 192 234 236 262 258 266 271 271 262 238 220 222 222 250 286 212 241 233 236 311 351 320 171 152 144 118 115 123 126 134 147 164 211 238 248 272 288 297 300 296 296 293 289 298 308 308
136 116 160 159 140 146 170 188 211 254 266 270 263 260 253 254 249 239 227 214 207 222 236 230 243 255 302 253 30 115 262 146 127 131 140 131 182 204 223 266 275 292 278 274 275 259 288 295 275 294 279 296 307 302
124 140 148 169 210 237 257 209 231 244 276 276 282 261 243 237 227 232 234 227 224 221 225 233 251 253 253 243 341 127 175 191 190 129 129 216 261 259 256 266 269 275 276 280 284 289 267 296 299 296 294 303 313 286
189 184 164 174 240 265 267 240 262 307 268 267 288 264 258 256 245 240 230 226 226 230 235 239 243 243 246 249 250 243 241 228 249 266 265 257 260 259 257 261 276 284 288 289 291 291 289 298 304 295 295 303 295 280
130 155 196 201 241 231 259 208 230 223 251 251 229 225 223 221 241 229 226 231 233 234 240 238 237 239 248 250 245 246 241 242 253 251 253 258 258 262 267 270 271 277 280 283 285 282 285 285 297 294 287 298 291 306
161 221 235 228 220 254 232 215 212 233 225 218 224 235 210 176 182 235 268 303 253 230 223 226 224 223 225 231 240 237 233 236 244 248 247 252 258 262 267 268 269 272 274 276 274 259 259 289 272 275 250 292 300 286
253 238 230 248 250 245 248 233 203 211 251 218 209 181 141 155 197 198 352 345 311 288 279 230 217 223 229 229 225 227 232 238 243 246 244 242 251 261 264 268 274 279 275 266 243 234 260 254 244 225 242 287 254 253
247 202 209 281 250 243 291 293 318 312 311 348 347 147 178 200 92 39 350 339 349 349 239 222 213 227 238 247 264 243 243 236 240 239 241 245 261 277 281 268 265 274 257 260 280 248 244 234 272 209 228 275 230 226
263 224 230 267 284 297 279 281 289 272 288 357 9 5 42 51 51 348 341 15 10 34 51 231 222 224 228 233 237 237 247 247 233 249 262 255 250 269 288 257 265 249 260 256 271 269 243 260 229 207 214 230 213 211
306 304 300 322 279 258 280 305 1 24 358 19 56 25 46 17 346 329 347 9 14 25 45 121 150 202 223 228 232 232 225 225 234 249 259 259 242 234 267 261 285 291 276 281 242 228 236 194 195 204 206 204 199 198
276 305 301 290 250 283 23 38 33 33 35 55 67 63 52 16 19 16 16 12 14 33 38 38 42 206 212 190 206 231 238 232 230 243 242 224 252 287 252 246 239 204 177 198 182 172 195 187 200 192 193 188 187 183
13 354 22 27 10 38 42 73 83 80 72 74 95 110 100 68 41 31 30 22 22 27 30 32 43 68 96 176 186 223 237 227 215 210 225 213 182 145 125 120 121 157 173 191 214 229 224 217 222 211 176 174 172 166
7 68 74 54 53 56 59 45 39 68 71 81 107 104 136 144 51 32 28 26 21 16 19 21 27 38 62 71 84 114 134 142 138 123 136 126 101 95 87 50 3 311 233 235 213 185 172 167 173 177 176 173 170 167
138 6 127 118 131 181 228 324 65 68 63 56 54 66 62 54 62 24 17 16 19 20 17 15 15 25 40 49 62 85 112 114 125 127 140 111 95 64 28 6 345 316 324 253 188 161 168 186 189 182 177 170 169 170
92 85 116 143 142 189 215 248 116 86 67 69 57 43 47 46 52 22 14 17 19 16 17 14 1 29 41 46 61 86 120 122 121 121 132 125 101 98 39 351 336 340 30 153 181 174 174 182 177 178 175 170 168 167